Regional Weather Roundup
Issued by NWS

Home | Current Version | Previous Version | Graphics & Text | Print | Product List | Glossary On
Versions: 1 2 3 4 5 6 7 8 9 10 11 12 13 14 15 16 17 18 19 20 21 22 23 24 25 26 27 28 29 30 31 32 33 34 35 36 37 38 39 40 41 42 43 44 45 46 47 48 49 50
000
ASUS43 KTOP 222059
RWRKS

WEATHER ROUNDUP FOR KANSAS
NATIONAL WEATHER SERVICE GOODLAND KS
400 PM CDT THU JUN 22 2017

NOTE:  "FAIR" INDICATES FEW OR NO CLOUDS BELOW 12,000 FEET WITH NO
SIGNIFICANT WEATHER AND/OR OBSTRUCTIONS TO VISIBILITY.

KSZ001>006-013>018-027>032-041>047-222200-
NORTHWEST KANSAS

CITY           SKY/WX    TMP DP  RH WIND       PRES   REMARKS
GOODLAND       SUNNY     89  57  33 N21G30    29.77F
HAYS           SUNNY    101  60  25 W8        29.62F HX 101
HILL CITY      SUNNY    103  54  19 NE13G21   29.63F HX 101
RUSSELL        SUNNY     99  59  26 S17       29.60F HX  99
$$

KSZ061>065-074>080-084>089-222200-
SOUTHWEST KANSAS

CITY           SKY/WX    TMP DP  RH WIND       PRES   REMARKS
DODGE CITY     SUNNY     94  64  37 S18G25    29.67F HX  95
ELKHART          N/A     97  59  28 SE12        N/A  HX  96
GARDEN CITY    SUNNY     95  64  35 S14       29.68F HX  97
GREAT BEND     SUNNY     98  64  32 S15G21    29.62F HX 100
LIBERAL          N/A     94  66  39 S16       29.70F HX  97
$$

KSZ066>073-081>083-090>101-222200-
SOUTHEAST KANSAS

CITY           SKY/WX    TMP DP  RH WIND       PRES   REMARKS
CHANUTE        MOSUNNY   88  72  58 S14G20    29.68F
COFFEYVILLE    PTSUNNY   87  74  64 S9        29.68F HX  95
HUTCHINSON     SUNNY     96  62  32 S13G22    29.64F HX  97
MEDICINE LODGE   N/A     96  60  30 S14G21    29.63F HX  96
NEWTON         SUNNY     92  66  42 S21       29.66F
PARSONS        PTSUNNY   86  72  62 VRB7      29.69F
WICHITA INTL   MOSUNNY   92  67  43 S12       29.65F HX  95
WICHITA JABRA  SUNNY     89  69  51 SE13      29.66F
WINFIELD       SUNNY     88  68  51 S13G20    29.67F
$$

KSZ007>012-019>026-033>040-048>060-102>105-222200-
NORTHEAST KANSAS

CITY           SKY/WX    TMP DP  RH WIND       PRES   REMARKS
CONCORDIA      SUNNY     97  62  31 S15G25    29.60F HX  98
EMPORIA        SUNNY     87  70  56 S12       29.68F
LAWRENCE       MOSUNNY   88  72  58 SE14      29.66F
MANHATTAN      SUNNY     94  68  42 S18G24    29.62F HX  98
OLATHE IND     PTSUNNY   84  71  65 S13G18    29.70F
OLATHE EXE     CLOUDY    82  72  71 S15       29.70F
SALINA         LGT RAIN  99  61  28 S23       29.60F HX  99
TOPEKA BILLARD SUNNY     89  71  55 S15       29.65F HX  95
TOPEKA FORBES  SUNNY     90  70  51 S14G22    29.66F HX  95
$$




USA.gov is the U.S. government's official web portal to all federal, state and local government web resources and services.